Regional Weather Roundup
Issued by NWS Little Rock, AR

Home | Current Version | Previous Version | Graphics & Text | Print | Product List | Glossary Off
Versions: 1 2 3 4 5 6 7 8 9 10 11 12 13 14 15 16 17 18 19 20 21 22 23 24 25 26 27 28 29 30 31 32 33 34 35 36 37 38 39 40 41 42 43 44 45 46 47 48 49 50

000
ASUS44 KLZK 262205
RWRLZK

WEATHER ROUNDUP FOR ARKANSAS
NATIONAL WEATHER SERVICE LITTLE ROCK AR
500 PM CDT SUN APR 26 2015

NOTE: "FAIR" INDICATES FEW OR NO CLOUDS BELOW 12,000 FEET WITH NO
SIGNIFICANT WEATHER AND/OR OBSTRUCTIONS TO VISIBILITY.

ARZ001-003-010-029-262300-
NORTHWEST ARKANSAS

CITY           SKY/WX    TMP DP  RH WIND       PRES   REMARKS
FAYETTEVILLE   SUNNY     66  55  67 NE12G18   29.79S
FORT SMITH     MOSUNNY   77  59  53 E16       29.72S
HARRISON       CLOUDY    58  48  69 NE8       29.86F
BENTONVILLE    SUNNY     66  48  52 E13G18    29.81F
ROGERS         SUNNY     64  50  60 E14G21    29.82F
SILOAM SPGS    SUNNY     66  52  59 E13G20    29.81S
HIGHFILL       SUNNY     66  51  58 E15       29.80F
SPRINGDALE     SUNNY     64  52  63 NE17G23   29.83S
$$

ARZ004-005-016-262300-
NORTH CENTRAL ARKANSAS

CITY           SKY/WX    TMP DP  RH WIND       PRES   REMARKS
BATESVILLE     CLOUDY    61  48  63 NE8       29.86F
FLIPPIN        CLOUDY    57  48  72 E8        29.86F
MTN HOME       CLOUDY    56  47  71 NE8       29.87F
$$

ARZ040-041-262300-
WEST CENTRAL ARKANSAS

CITY           SKY/WX    TMP DP  RH WIND       PRES   REMARKS
MENA           MOSUNNY   82  61  47 SE3       29.73S
MOUNT IDA      MOSUNNY   77  60  55 VRB6      29.73S
$$

ARZ009-017-025-026-028-262300-
NORTHEAST ARKANSAS

CITY           SKY/WX    TMP DP  RH WIND       PRES   REMARKS
CORNING          N/A     61  48  63 NE7       29.89S
JONESBORO      CLOUDY    56  50  80 NE7       29.88S
NEWPORT        CLOUDY    59  51  74 NE17      29.88F
WALNUT RIDGE   CLOUDY    57  46  67 N7        29.89S
BLYTHEVILLE    CLOUDY    60  49  66 N12       29.88S
$$

ARZ022-023-033-042-044-262300-
CENTRAL ARKANSAS

CITY           SKY/WX    TMP DP  RH WIND       PRES   REMARKS
LITTLE ROCK    CLOUDY    67  54  63 E13       29.82S
N LITTLE ROCK  CLOUDY    66  58  76 NE10      29.82S
JACKSONVILLE   CLOUDY    65  55  69 E10       29.82S
SEARCY         CLOUDY    62  52  69 E13       29.85F
HOT SPRINGS    SUNNY     74  59  59 E13       29.77R
RUSSELLVILLE   MOSUNNY   71  56  58 E9        29.79S
CLINTON        CLOUDY    63  54  72 NE6       29.85S
$$

ARZ036-262300-
EAST ARKANSAS

CITY           SKY/WX    TMP DP  RH WIND       PRES   REMARKS
WEST MEMPHIS   CLOUDY    59  52  77 N13       29.85S
$$

ARZ050-053-066-070-073-262300-
SOUTHWEST ARKANSAS

CITY           SKY/WX    TMP DP  RH WIND       PRES   REMARKS
ARKADELPHIA    FAIR      77  64  63 NE10      29.75S
CAMDEN         SUNNY     84  59  42 N6        29.71F
TEXARKANA      TSTM      83  66  56 NE7       29.68F HX  85
EL DORADO      MOSUNNY   85  61  44 NE9       29.70F HX  85
DE QUEEN       PTSUNNY   80  64  58 E8        29.67F
$$

ARZ056-057-069-262300-
SOUTHEAST ARKANSAS

CITY           SKY/WX    TMP DP  RH WIND       PRES   REMARKS
PINE BLUFF     PTSUNNY   68  58  70 NE14      29.80S
STUTTGART      PTSUNNY   66  54  63 NE13      29.83S
MONTICELLO     MOSUNNY   75  63  66 NE12G18   29.77S

$$





USA.gov is the U.S. government's official web portal to all federal, state and local government web resources and services.